Meath Environmental Platform

Observations for Trim Patrick St

Time AQI Temp °C Hum % Pres Pa CO μg/m³ H₂S μg/m³ NO μg/m³ NO₂ μg/m³ O₃ μg/m³ SO₂ μg/m³ PM1 μg/m³ PM2.5 μg/m³ PM10 μg/m³
Friday 28 August 2026
11:16 2 22.6 73 38,460 0.05 0 1.93 5.2 45.52 5.72 15.71 22.86 25.14
11:15 2 22.4 74 38,460 0.02 0 1.95 0.63 54.97 6.05 17.43 25.62 26.01
11:14 2 22.2 74 38,460 0.01 0 1.97 0.53 46.14 5.35 17.43 25.56 28.11
11:13 2 22.1 75 38,460 0 0 2.01 0 52.9 5.37 19.14 26.81 29.49
11:12 2 21.9 76 38,460 0 0 1.99 0 46.18 4.69 18.29 26.79 29.47
11:11 2 21.8 75 38,460 0.02 0 1.96 0 40.48 5.57 17.43 26.17 28.78
11:10 2 21.7 76 38,460 0.02 0 2 0 52.4 5.9 18.29 25.33 27.86
11:09 2 21.5 76 38,460 0.04 0 1.96 0 53.81 6.15 19.14 28.13 28.98
11:08 2 21.6 75 38,460 0.01 0 1.91 0.16 49.23 5.2 19.14 26.85 29.54
11:07 2 21.5 75 38,460 0 0 1.88 0.42 43.44 5.34 17.43 26.18 27.18
11:06 2 21.5 76 38,460 0.01 0 1.97 0 48.74 5.7 17.43 25.31 27.84
11:05 2 21.5 75 38,460 0.01 0 1.92 0.22 50.17 5.22 17.43 25.42 27.96
11:04 2 21.5 75 38,460 0.01 0.07 1.91 0.2 48.72 5.59 17.43 24.7 27.17
11:03 2 21.5 75 38,460 0.01 0 1.91 0.16 44.86 6.18 18.29 26.12 28.73
11:02 2 21.5 76 38,460 0.01 0 1.94 0 49.87 5.94 17.43 27.46 27.62
11:01 2 21.4 75 38,460 0 0 1.93 0.24 43.72 5.01 20 27.54 30.29
11:00 2 21.5 76 38,460 0 0 2 0 50.92 5.51 19.14 26.72 29.4
10:59 2 21.4 74 38,460 0 0 1.85 0.66 43.05 4.75 19.14 27.65 30.42
10:58 2 21.4 75 38,460 0 0 1.94 0.49 48.12 5.68 17.43 22.62 24.89
10:57 2 21.4 75 38,460 0 0 1.96 0.43 45.97 5.59 18.29 26.17 28.78